Location: Kalberh�ni
(46.4610°N, 7.2453°E)
Time: 08:15:03
(UTC+00:00)

Cosmos 1455 - Pass Details

Date: 31 October 2021
Orbit: 496 x 520 km, 82.5° (Epoch: 27 November)

Event Time Altitude Azimuth Distance (km) Brightness Sun altitude
Rises 03:28:55 0° 10° (N) 2,597 6.0 -28.3°
Reaches altitude 10° 03:32:14 10° 42° (NE) 1,705 5.4 -27.8°
Maximum altitude 03:33:47 12° 67° (ENE) 1,568 5.5 -27.5°
Drops below altitude 10° 03:35:20 10° 91° (E) 1,699 5.8 -27.2°
Sets 03:38:37 0° 123° (ESE) 2,577 6.5 -26.7°
